Showing default

COSMOS 2526, 43432

Orbit data source: Space-Track

COSMOS 2526, 43432 is a Commonwealth of Independent States-origin payload satellite in GEO that was launched on Wed, 18 Apr 2018 UTC via a PROTON-M/BRIZ-M launch vehicle from the Tyuratam Missile And Space Complex (TTMTR). Payload-class satellites include a variety of spacecraft equipped with specific instruments for various scientific and technological missions. These include communications satellites like Starlink; space stations such as the ISS; scientific satellites like the Hubble; Earth observation satellites from companies like Planet Labs, Umbra, and HawkEye 360; GPS; miniature CubeSats for education and research; and military/defense satellites.

Not visible in the next 10 days
Identifier
43432, 2018-037A
Orbit
GEO
Country
Flag of CISCIS
Related business
Manufacturer
Resehetnev ISS
Mission
Operational Defense Communications
Bus & Motor
EKSPRESS-2000?, AOCS
Mass
3,162 kg wet, ~2,000 kg dry
Launch date (UTC)
2018-04-18 (8 years ago)
Launch vehicle
PROTON-M/BRIZ-M
Launch site
Tyuratam Missile And Space Complex (TTMTR)
Object type
Payload
Rocket body
Debris
Shape & HBR
Cyl + 2 Pan, 13.5 m
Radar Cross Section
24.423 m², Large (>1 m²)

Expand to show TLE details & history
Last TLE update: 8 hours ago

TLE from 8 hours ago
0 COSMOS 2526
1 43432U 18037A   25353.64935454 -.00000320  00000-0  00000+0 0  9998
2 43432   0.0371  78.7768 0000764 340.6683  30.8765  1.00272659 28167
Epoch: 2025-12-19T15:35Z
TLE epoch observation values (Epoch: 2025-12-19T15:35:04.232Z)
Latitude
0.02788°
Longitude
128.0603°
Altitude
35,783.055 km
Speed
3.075 km/s
True Right ascension
06h 01m 15s
True Declination
0° 01' 40"
Sunlit
Object was in daylight at epoch
Visualization orbit readout
Latitude
Unknown
Longitude
Unknown
Altitude
Unknown
Speed
Unknown
Apparent Right ascension
Unknown
Apparent Declination
Unknown
Sunlit
N/A
Visualization observer readout
Local Sidereal Time
22:34:23
Azimuth
Unknown
Elevation
Unknown
Doppler factor
Unknown
Orbital elements
Apogee altitude
35,790.642 km
Perigee altitude
35,784.199 km
Semi-major axis
42,165.557 km
Eccentricity
0.00008
Inclination
0.0371°
RAAN
78.7768°
Arg. of periapsis
340.6683°
True anomaly
30.88099°
Mean anomaly
30.8765°
Eccentric anomaly
30.87875°
Mean motion
0.25067 °/min
Orbital period
1,436.14 mins
BSTAR
0
Loading maneuver chart data...
Computing Atmospheric mass density...
Loading historical data...
Loading historical data...
Loading historical data...
Loading historical data...
Loading historical data...
Loading historical data...
Loading historical data...
Other satellites on launch #37 in the year 2018 (2018-04-18 UTC)

Documentation

Showing up to 5 results
|